This is the latest recevied weather packets stored in our database for station/object KY0TEQ-13. If no packets are shown the sender has not sent any weather packets the latest 10 day(s).
| Time | Temp. | Humidity | Pressure | Rain* | Wind** | Luminosity | Snow |
|---|---|---|---|---|---|---|---|
| 1787963464 | 29.44° C | 21% | 1308.6 hPa | 0 mm | - | 64 W/m² | - |
| 1787963159 | 30° C | 21% | 1308.9 hPa | 0 mm | - | 70 W/m² | - |
| 1787962858 | 30° C | 20% | 1308.8 hPa | 0 mm | - | 89 W/m² | - |
| 1787962556 | 30° C | 18% | 1309 hPa | 0 mm | - | 104 W/m² | - |
| 1787962255 | 30° C | 20% | 1308.9 hPa | 0 mm | - | 103 W/m² | - |
| 1787961950 | 30.56° C | 18% | 1309.3 hPa | 0 mm | - | 169 W/m² | - |
| 1787961645 | 30.56° C | 18% | 1308.9 hPa | 0 mm | - | 219 W/m² | - |
| 1787961339 | 30.56° C | 18% | 1309.1 hPa | 0 mm | - | 214 W/m² | - |
| 1787961033 | 30.56° C | 19% | 1308.9 hPa | 0 mm | - | 242 W/m² | - |
| 1787960733 | 30° C | 19% | 1309.3 hPa | 0 mm | - | 199 W/m² | - |
| 1787960427 | 30° C | 22% | 1309 hPa | 0 mm | - | 283 W/m² | - |
| 1787960122 | 29.44° C | 21% | 1309 hPa | 0 mm | - | 145 W/m² | - |
| 1787959817 | 29.44° C | 21% | 1309.1 hPa | 0 mm | - | 114 W/m² | - |
| 1787959512 | 30° C | 18% | 1309 hPa | 0 mm | - | 110 W/m² | - |
| 1787959212 | 30° C | 20% | 1309.3 hPa | 0 mm | - | 113 W/m² | - |
| 1787958912 | 29.44° C | 19% | 1309 hPa | 0 mm | - | 122 W/m² | - |
| 1787958607 | 29.44° C | 21% | 1309.3 hPa | 0 mm | - | 128 W/m² | - |
| 1787958303 | 30° C | 19% | 1309.1 hPa | 0 mm | - | 130 W/m² | - |
| 1787958003 | 30° C | 18% | 1308.9 hPa | 0 mm | - | 134 W/m² | - |
| 1787957701 | 30° C | 19% | 1309.3 hPa | 0 mm | - | 128 W/m² | - |
| 1787957397 | 30.56° C | 17% | 1309.3 hPa | 0 mm | - | 137 W/m² | - |
| 1787957096 | 31.11° C | 17% | 1309.1 hPa | 0 mm | - | 249 W/m² | - |
| 1787956791 | 31.11° C | 17% | 1309.1 hPa | 0 mm | - | 342 W/m² | - |
| 1787956486 | 32.78° C | 16% | 1309.3 hPa | 0 mm | - | 445 W/m² | - |
| 1787956181 | 32.22° C | 14% | 1309.3 hPa | 0 mm | - | 590 W/m² | - |
* Rain latest hour (hover to see other rain measurements)
** Current wind speed in m/s (hover to see current wind gust speed)